Vertical_Velocity
0 0 0 1 0 0 1 0 -1 -2 -2 -1 -1 -1 -1 -1 -1 -1 -0 -1 -1 -1 -1 -1 -1 -1 -0 0 1 1 1 1 1 1 1 1 1 1 1 1 1 1 2 2 2 2 2 2 2 2 2 2 2 1 1 0 0 -0 -0 -0 0 0 0 -0 -0 -1 -1 -1 -1 -1 -1 -1 -1 -1 -1 -1 -1 -1 -1 -1 -1 -1 -0 -0 0 1
0 0 0 -0 -1 -1 -0 -0 -1 -2 -2 -2 -2 -1 -2 -2 -2 -1 -1 -1 -1 -1 -1 -1 -1 -1 -0 0 1 1 1 1 1 1 1 0 0 1 1 1 1 1 1 2 2 2 2 2 2 2 1 1 1 1 0 -0 -0 -0 -0 -0 -0 -0 -0 -0 -0 -1 -1 -1 -1 -1 -1 -1 -1 -1 -0 -0 -0 -0 -0 -0 -0 -0 -0 0 1 1
1 0 -0 -0 -1 -1 -1 -1 -1 -2 -2 -2 -2 -2 -2 -2 -2 -2 -2 -2 -2 -2 -1 -1 -0 -0 0 0 0 1 1 1 1 0 0 0 0 0 0 1 1 1 1 1 1 1 1 1 1 1 1 1 1 0 -0 -1 -1 -1 -1 -0 -0 -0 -0 -0 -1 -1 -1 -0 -0 -0 -0 -0 -0 -0 -0 0 0 0 0 0 0 -0 -0 -0 1 1
1 0 -0 -0 -1 -1 -1 -1 -1 -1 -2 -2 -2 -2 -2 -3 -3 -3 -3 -3 -3 -3 -2 -1 -0 0 0 1 1 1 0 0 0 0 -0 -0 -0 -0 0 0 0 0 1 1 0 0 -0 -0 -0 0 0 0 0 -0 -0 -1 -1 -1 -1 -1 -1 -1 -1 -1 -1 -0 -0 -0 -0 -0 0 0 0 0 0 0 0 0 0 0 0 -0 -1 -1 0 2
0 -0 -1 -1 -1 -1 -1 -1 -1 -1 -1 -1 -2 -1 -2 -2 -3 -4 -4 -3 -3 -3 -2 -2 -1 -0 0 0 1 0 0 0 -0 -0 -1 -1 -1 -1 -1 -1 -0 -0 -0 -0 -0 -1 -1 -1 -0 -0 0 0 0 -0 -0 -0 -0 -1 -1 -1 -1 -1 -0 -0 -0 -0 -0 -0 0 0 0 1 1 1 1 0 0 0 0 0 0 0 -0 0 1 2
-0 -0 -1 -1 -1 -1 -1 -1 -1 -1 -1 -2 -2 -1 -1 -2 -3 -4 -4 -4 -3 -2 -2 -2 -1 -1 0 0 1 0 0 0 -0 -1 -1 -1 -2 -1 -1 -1 -1 -1 -1 -1 -1 -1 -1 -1 -0 0 0 0 0 -0 -0 -0 -0 -0 -0 -0 -0 -0 0 0 0 0 0 0 0 1 1 1 1 1 1 0 -0 -0 0 0 0 0 0 1 1 2
-0 -0 -1 -1 -1 -1 -1 -0 -0 -0 -1 -2 -2 -2 -1 -2 -2 -3 -4 -3 -3 -2 -2 -2 -2 -1 -0 1 1 1 0 0 -0 -0 -1 -2 -2 -2 -1 -1 -1 -1 -2 -2 -2 -1 -1 -0 0 1 1 1 0 0 0 0 0 0 0 0 0 0 1 1 0 0 0 1 1 1 1 1 1 1 1 0 -0 0 0 0 0 1 1 1 1 1
-1 -1 -1 -1 -2 -2 -2 -1 0 1 -0 -2 -2 -3 -2 -2 -2 -2 -2 -2 -2 -1 -2 -2 -3 -2 -1 0 1 1 0 -0 -1 -1 -1 -2 -2 -3 -2 -2 -2 -2 -2 -2 -2 -2 -1 0 1 1 2 1 1 1 1 1 1 0 0 1 1 1 1 1 1 1 1 1 1 1 1 1 1 1 0 0 0 0 0 0 0 1 1 1 1 2
-1 -1 -1 -1 -2 -2 -2 -1 -0 1 0 -1 -2 -3 -3 -4 -4 -3 -2 -1 0 1 0 -1 -3 -4 -4 -2 -0 1 1 -0 -1 -1 -1 -2 -3 -3 -3 -3 -3 -3 -3 -4 -3 -2 -1 0 1 1 2 2 1 1 1 1 1 0 0 0 1 1 1 0 0 0 1 1 1 1 1 1 1 1 1 0 0 0 0 0 0 1 1 1 2 2
-1 -1 -1 -2 -2 -1 -1 -1 -1 -0 1 0 -1 -1 -2 -3 -4 -4 -4 -3 -1 1 2 1 -1 -3 -4 -3 -2 -1 0 0 0 0 -0 -1 -2 -2 -3 -3 -3 -4 -4 -4 -4 -3 -1 -0 1 1 1 1 1 1 0 0 0 0 -0 0 0 0 0 0 0 0 0 1 1 1 1 1 1 1 1 0 0 0 0 1 1 1 1 1 1 1
-1 -1 -1 -2 -2 -2 -1 -0 -0 -0 0 -0 -1 -2 -2 -1 -2 -2 -4 -4 -3 -1 1 0 -0 -1 -2 -3 -2 -1 -1 -1 -0 0 1 0 -0 -1 -1 -1 -2 -2 -3 -4 -4 -3 -2 -1 -0 0 0 1 1 0 -0 -0 -0 -0 -0 0 0 0 0 0 0 0 1 1 1 1 1 1 1 1 1 1 1 1 1 1 1 1 1 1 1 1
-1 -1 -1 -1 -1 -1 -1 -1 -1 -1 -0 -1 -2 -4 -4 -2 -1 0 -1 -3 -3 -2 -1 -1 -1 -1 -0 -1 -1 -1 -1 -1 -1 -1 -0 -1 -1 -0 0 -0 -1 -2 -2 -2 -3 -4 -4 -2 -1 -0 -1 -1 -0 -0 -1 -1 -1 -0 -0 -0 0 0 0 0 0 0 1 1 2 1 1 1 1 1 1 1 1 1 1 1 1 1 1 1 1 1
-1 -1 -1 -1 -1 -1 -1 -1 -2 -2 -2 -1 -2 -3 -4 -3 -1 0 0 -1 -1 -1 -0 -1 -1 -1 1 2 1 -1 -1 -1 -1 -1 -1 -2 -3 -2 0 0 -1 -2 -2 -1 -2 -3 -4 -3 -2 -1 -1 -2 -2 -1 -1 -1 -1 -1 -1 -0 -0 0 0 0 0 1 1 2 2 2 1 1 1 1 1 1 1 1 1 1 1 1 1 1 1 1
-1 -1 -1 -1 -1 -1 -1 -1 -1 -2 -2 -2 -2 -2 -3 -2 -1 -0 0 -1 -1 -0 2 1 0 -1 0 2 3 2 0 -1 -1 -0 0 -2 -4 -4 -1 1 -0 -2 -3 -2 -1 -1 -3 -4 -3 -2 -1 -2 -2 -2 -2 -2 -2 -2 -1 -1 -0 -0 -0 0 0 1 1 2 2 2 1 1 0 0 1 1 1 1 1 1 1 1 1 1 0 0
-0 -0 -1 -1 -1 -0 -0 -1 -1 -2 -2 -2 -2 -2 -3 -2 -2 -1 1 -1 -2 -0 3 3 1 -0 -1 0 3 4 4 2 1 -0 1 -0 -3 -4 -3 -0 -0 -2 -4 -4 -3 -2 -2 -3 -4 -4 -3 -2 -2 -2 -3 -3 -2 -2 -2 -1 -1 -0 -0 0 0 1 1 1 1 2 1 0 -0 -0 0 1 1 1 1 0 0 0 0 1 0 0
0 1 0 -0 -0 -0 -0 0 -0 -1 -2 -2 -2 -2 -1 -2 -2 -1 1 -0 -0 1 4 2 1 -0 -2 -1 1 3 5 5 3 1 1 1 -1 -3 -3 -1 -0 -1 -3 -4 -5 -5 -4 -4 -4 -4 -4 -4 -4 -3 -3 -3 -3 -2 -2 -1 -1 -0 -0 0 0 0 0 1 1 1 1 0 -0 -1 -0 0 1 1 0 0 0 0 0 1 1 0
0 0 0 -0 -0 -0 -1 -0 -0 -0 -1 -2 -2 -2 -0 -1 -1 -1 0 1 2 3 3 2 0 -2 -3 -2 -2 -1 2 3 3 2 2 2 0 -2 -2 -1 -0 -1 -3 -4 -4 -5 -5 -5 -5 -5 -4 -4 -4 -4 -4 -3 -3 -2 -2 -1 -1 -1 -0 -0 -0 -0 -1 -0 0 0 1 0 -0 -1 -1 -0 0 0 0 0 0 0 0 1 1 0
0 0 0 0 -0 -1 -1 -1 -1 -1 -2 -2 -2 -2 -2 -2 -0 1 2 3 4 4 1 2 1 -1 -4 -3 -4 -4 -1 -0 0 1 2 3 2 -0 -2 -1 -1 -2 -4 -5 -5 -4 -4 -4 -5 -6 -5 -5 -4 -4 -4 -3 -3 -2 -1 -1 -1 -1 -1 -1 -1 -1 -1 -1 -1 0 1 1 0 -0 -1 -0 0 0 0 0 0 0 0 1 1 1
-0 0 1 0 -0 -1 -1 -0 -1 -1 -2 -2 -2 -1 -2 -2 -1 2 3 4 5 4 1 1 0 -0 -2 -2 -2 -2 -1 -0 -0 0 1 3 2 1 -0 1 0 -1 -4 -5 -5 -5 -4 -3 -3 -4 -5 -5 -5 -4 -4 -3 -2 -2 -1 -1 -1 -0 -1 -1 -1 -1 -1 -1 -1 -0 1 1 0 -0 -1 -0 -0 0 0 0 0 0 0 0 1 1
-0 0 1 1 0 -1 -2 -2 -1 -0 -0 -1 -1 -1 -1 -1 0 2 3 5 5 4 3 2 0 -1 -1 -2 -2 -1 -1 -1 -1 -0 1 2 0 -1 -0 3 3 2 0 -2 -3 -4 -5 -4 -3 -2 -3 -3 -4 -4 -3 -3 -2 -1 -1 -0 -0 0 0 -0 -0 -1 -1 -1 -1 -0 0 1 0 -1 -1 -1 -0 0 0 0 0 0 0 0 1 1
-0 -1 -1 0 1 -0 -3 -3 -2 -2 -1 -1 -1 -1 -2 0 2 3 3 5 6 5 3 2 1 -1 -1 -2 -3 -3 -4 -4 -3 -2 -1 1 0 -2 -2 1 3 3 2 2 1 -0 -3 -5 -4 -3 -2 -3 -3 -4 -3 -2 -1 -1 0 0 0 0 0 0 -0 -0 -1 -1 -1 -1 0 0 -0 -1 -1 -1 -1 -0 0 0 -0 -0 -0 0 0 0
-0 -1 -2 -1 0 -0 -2 -2 -3 -3 -2 -1 0 -0 -0 2 3 4 3 5 5 4 3 1 -0 -1 -2 -3 -3 -4 -6 -6 -5 -4 -3 -1 0 0 -1 0 2 2 2 1 2 4 3 -1 -4 -4 -3 -2 -3 -4 -4 -2 -1 -0 1 1 0 0 0 -0 -0 -0 -1 -1 -1 -1 -0 -0 -0 -1 -1 -1 -1 -0 -0 -0 -0 -0 -0 -0 0 0
0 -1 -1 -1 -1 -1 -2 -2 -3 -3 -2 1 3 3 2 4 5 4 3 3 3 2 1 -0 -1 -1 -3 -3 -3 -2 -3 -4 -3 -2 -2 -1 -0 -0 0 1 3 4 3 0 0 3 7 5 1 -3 -4 -2 -2 -3 -3 -2 -1 -1 0 1 1 0 -0 -0 -1 -1 -1 -1 -1 -1 -1 -0 -0 -0 -1 -1 -1 -1 -0 -0 -0 -0 -1 -0 0 0
-0 -0 -1 -1 -1 -2 -2 -2 -3 -2 -0 3 5 5 5 6 5 4 3 2 2 1 0 -1 -1 -2 -2 -3 -2 -0 0 -0 -1 -1 -0 1 1 0 -1 -1 1 4 6 4 1 1 5 7 5 1 -3 -3 -2 -2 -2 -2 -1 -1 0 0 1 1 0 -1 -1 -1 -1 -1 -1 -1 -1 -1 -0 -0 -1 -1 -1 -1 -1 -0 -0 -0 -0 -0 -0 0
-0 -0 -1 -1 -1 -2 -2 -2 -0 1 3 4 5 5 5 5 4 3 2 3 2 2 1 -1 -2 -2 -3 -4 -4 -3 -0 1 1 0 -0 0 1 2 -0 -2 -1 1 4 5 4 2 3 8 9 6 1 -2 -3 -3 -2 -1 -1 -1 -1 -0 0 0 0 -1 -1 -2 -2 -1 -1 -1 -1 -1 -0 -0 -1 -1 -1 -1 -1 -1 -0 -0 -0 -0 0 0
-1 -1 -2 -2 -2 -1 -0 1 3 4 4 4 4 4 5 4 3 2 1 2 2 2 1 -0 -1 -1 -2 -4 -5 -5 -4 -0 1 1 -1 -1 0 1 2 -0 -1 -1 1 5 4 2 1 7 11 11 7 1 -2 -3 -2 -1 -1 -1 -1 -1 -0 -0 -0 -1 -1 -2 -2 -1 -1 -0 -0 -0 -0 -1 -1 -1 -1 -1 -1 -1 -0 -0 0 0 0 0
-3 -3 -3 -2 -1 1 3 6 6 6 4 4 4 4 4 2 1 1 1 1 1 1 -0 -2 -1 -1 -1 -2 -3 -4 -4 -2 0 1 0 -2 -2 -1 0 1 0 -1 -1 3 4 2 -1 2 8 12 12 6 0 -3 -2 -1 -0 0 -0 -0 -1 -1 -0 -1 -1 -1 -2 -1 -1 0 0 -0 -1 -1 -1 -1 -1 -1 -1 -1 -0 0 0 1 1 1
-2 -1 -1 -0 1 3 5 7 8 8 7 6 5 4 3 1 1 1 0 -0 -0 -1 -2 -3 -3 -2 -0 1 0 -0 -1 -1 1 2 2 -0 -2 -2 -2 -1 -0 -1 -3 1 4 4 -0 -2 2 7 12 9 4 -1 -3 -1 0 1 1 -0 -1 -1 -1 -1 -0 -0 -1 -1 -0 0 0 -0 -1 -1 -1 -1 -1 -1 -1 -1 -0 0 1 1 1 0
1 2 2 2 3 4 7 9 10 9 8 7 5 3 2 1 1 0 -0 -1 -2 -2 -3 -4 -3 -2 -1 1 2 2 1 1 1 2 3 1 1 -0 -2 -1 -1 -2 -6 -4 1 5 5 -1 -2 -0 6 8 6 2 -1 -1 0 1 1 1 0 -1 -2 -1 -0 0 -0 -0 -0 0 0 -0 -1 -1 -1 -1 -1 -0 -0 -0 -0 0 1 1 0 0
2 3 2 2 5 8 11 11 10 8 6 4 2 1 2 1 0 -0 -1 -1 -2 -3 -3 -3 -3 -2 -2 -1 0 1 1 1 1 1 0 1 1 0 -2 -1 -0 -1 -7 -10 -6 0 7 6 2 -2 -1 3 4 3 1 0 -0 0 0 1 1 1 -1 -1 -1 0 0 -0 -0 0 0 0 -0 -1 -1 -0 -0 -0 -0 -0 -0 0 1 1 0 -1
1 2 3 6 9 12 12 10 7 4 2 1 1 1 1 0 -0 -1 -2 -2 -2 -2 -1 -1 -1 -1 -2 -2 -3 -3 -2 -1 1 1 -1 -1 0 0 -3 -4 -2 0 -1 -8 -11 -10 -3 5 8 6 3 3 3 3 3 2 1 -1 -1 0 2 2 1 -0 -0 0 0 0 0 0 0 0 0 -0 -0 -0 -0 0 -0 -0 -0 0 1 0 -1 -1
4 6 10 11 12 10 7 4 2 1 -0 0 0 0 0 -1 -2 -2 -3 -3 -2 -1 -0 0 1 0 -1 -2 -3 -4 -4 -2 -0 1 -1 -2 -1 0 -2 -4 -4 -1 2 -1 -5 -10 -11 -5 2 7 8 6 3 1 2 3 2 0 -2 -1 1 3 2 0 -0 -0 0 0 0 0 0 0 0 0 0 0 0 -0 -0 -0 -0 0 0 -1 -1 -2
9 11 13 11 8 4 2 0 -0 -1 -1 -0 -0 -0 -1 -2 -2 -2 -3 -2 -2 -1 0 1 1 1 0 -0 -2 -3 -4 -4 -2 -0 -0 -2 -1 -1 -1 -3 -4 -2 0 2 1 -2 -5 -6 -4 0 5 7 4 1 -1 0 1 1 -1 -1 1 2 3 1 0 -0 -0 -0 -0 0 1 0 0 0 0 0 -0 -1 -1 -0 -0 -0 -0 -1 -2 -2
10 9 7 4 2 0 -1 -1 -1 -0 -0 -0 -1 -1 -2 -2 -2 -2 -2 -1 -0 0 0 -0 -1 -1 -1 -0 -0 -1 -3 -5 -4 -3 -2 -2 -2 -1 0 -1 -3 -4 -2 0 0 -1 -1 -1 -2 -2 -1 5 6 4 -1 -3 -3 -2 -1 -1 0 2 2 1 1 0 -0 -1 -0 0 1 1 0 0 0 -0 -1 -1 -1 -0 0 0 -0 -1 -1 -1
5 3 1 1 0 -0 -1 -1 -1 -0 -1 -1 -2 -2 -2 -2 -2 -1 -0 0 0 0 -0 -1 -1 -2 -2 -2 -2 -1 -1 -3 -4 -4 -3 -3 -3 -2 0 1 -2 -4 -3 -1 -1 -2 -3 -1 0 -1 -3 0 4 6 4 -1 -4 -5 -4 -3 -1 0 1 0 0 1 1 0 0 0 1 1 1 0 0 -1 -1 -1 -0 0 1 1 0 -1 -1 -1
1 0 -0 -0 -1 -1 -1 -1 -1 -1 -2 -3 -3 -3 -3 -2 -1 -1 -0 -0 -0 -0 0 0 -0 -1 -1 -2 -2 -2 -0 -1 -1 -2 -2 -2 -2 -2 -0 1 -0 -3 -5 -3 -1 -1 -2 -0 1 1 -2 -3 -1 2 5 3 -1 -4 -6 -5 -3 -1 -0 -1 -0 0 1 1 1 1 1 1 0 0 -0 -1 -1 -0 1 2 2 1 0 -1 -1 -0
-0 -1 -1 -1 -1 -1 -1 -2 -3 -4 -4 -4 -4 -4 -3 -2 -1 -1 -1 -1 -1 -1 -1 0 0 0 0 -0 -1 -1 -1 0 1 1 1 0 -1 -1 -1 1 1 -1 -4 -5 -4 -2 -1 0 1 2 2 -0 -2 -3 -0 3 3 0 -4 -5 -3 -1 0 0 -0 -0 0 1 1 1 1 1 0 -0 -1 -1 -1 1 2 3 2 1 0 -0 -0 0
-1 -2 -2 -2 -2 -2 -3 -4 -5 -5 -5 -4 -3 -3 -2 -2 -2 -2 -2 -1 -1 -2 -2 -2 -1 -1 -0 0 0 0 0 0 1 1 1 1 0 -1 -2 -1 0 0 -1 -3 -4 -4 -2 -1 -0 0 1 2 1 -0 -2 0 2 2 -0 -3 -3 -2 -0 1 1 1 1 1 1 1 1 0 -0 -1 -1 -1 -0 1 2 3 2 1 1 1 0 0
-2 -2 -2 -2 -3 -4 -5 -5 -5 -4 -4 -3 -3 -2 -2 -1 -1 -2 -2 -2 -2 -2 -3 -3 -3 -2 -2 -1 0 1 1 1 0 -0 -0 -0 -0 -1 -2 -2 -1 0 1 -1 -2 -3 -3 -1 -0 -0 -1 -0 1 1 0 1 1 2 1 -1 -3 -3 -1 0 1 1 1 1 1 0 -0 -1 -1 -1 -1 -1 0 1 2 2 2 1 1 1 0 -0
-2 -2 -3 -4 -5 -5 -5 -4 -3 -3 -2 -2 -2 -2 -2 -2 -2 -2 -2 -2 -2 -2 -3 -3 -2 -2 -2 -3 -2 -2 -1 -0 -0 -1 -1 -1 -1 -1 -1 -2 -2 -1 1 1 -0 -2 -3 -2 -0 0 -0 -1 -1 -1 -1 -0 1 1 1 -1 -2 -3 -1 1 1 1 1 1 1 0 -1 -1 -1 -1 -0 0 0 1 1 1 1 1 2 1 0 -1
-3 -4 -5 -6 -5 -4 -3 -2 -2 -2 -2 -2 -2 -2 -2 -2 -2 -2 -2 -2 -2 -2 -3 -3 -2 -2 -2 -3 -5 -5 -5 -4 -2 -1 -0 -1 -1 -2 -2 -2 -2 -2 -0 1 1 -1 -4 -4 -2 -1 0 0 -0 -1 -1 -2 -1 -1 -0 -1 -2 -2 -1 1 2 2 1 0 0 0 -1 -2 -2 -1 0 1 0 -0 0 -0 0 1 1 1 0 -1
-5 -6 -6 -5 -4 -2 -2 -2 -2 -2 -1 -1 -1 -1 -1 -2 -2 -2 -2 -2 -2 -2 -2 -3 -3 -3 -2 -2 -3 -4 -5 -6 -5 -3 -1 -0 -1 -1 -2 -2 -3 -3 -2 0 1 0 -3 -5 -5 -4 -1 0 0 -0 -0 -1 -2 -2 -2 -2 -1 -1 -0 0 1 1 1 0 -1 -1 -1 -2 -2 -1 1 1 0 -1 -1 -1 -0 0 1 1 1 -0
-6 -6 -4 -3 -2 -2 -2 -2 -2 -1 -1 -1 -1 -1 -1 -2 -2 -2 -2 -2 -2 -2 -2 -2 -2 -2 -3 -2 -1 -1 -1 -2 -3 -3 -2 -1 -0 0 0 0 -1 -3 -4 -2 -0 1 0 -3 -5 -6 -4 -2 -1 -0 -0 -1 -2 -3 -4 -3 -2 -0 1 1 0 0 -0 -0 -1 -1 -1 -1 -1 -1 1 1 0 -1 -2 -1 -1 0 1 1 1 -0
-5 -4 -2 -2 -2 -2 -2 -2 -1 -1 -1 -1 -1 -1 -1 -2 -2 -2 -2 -2 -2 -2 -3 -3 -2 -1 -1 -1 -1 -1 -0 -1 -1 -2 -2 -2 -2 -2 -1 -1 -1 -2 -3 -4 -3 -1 -0 -1 -2 -4 -5 -4 -2 -1 0 -1 -2 -3 -4 -3 -2 -1 1 1 2 1 0 -0 -1 -1 -1 -1 -1 -1 1 2 1 -1 -2 -1 -1 -0 0 1 1 -0
-2 -2 -1 -2 -2 -2 -1 -1 -0 -1 -1 -1 -2 -2 -2 -2 -2 -2 -2 -2 -2 -2 -3 -3 -2 -1 1 2 2 1 1 -1 -3 -4 -5 -5 -6 -6 -7 -6 -6 -6 -5 -5 -4 -4 -3 -2 -1 -1 -3 -3 -3 -2 -1 -1 -2 -3 -4 -3 -2 -1 0 1 2 2 2 0 -1 -1 -1 -1 -1 -1 2 2 1 -0 -1 -1 -1 -0 0 1 1 0
-1 -1 -2 -1 -1 -1 0 0 -0 -1 -2 -2 -2 -2 -2 -1 -2 -2 -3 -3 -3 -2 -2 -2 -2 -1 0 2 2 2 2 1 -1 -3 -5 -7 -9 -10 -10 -10 -9 -8 -7 -6 -5 -4 -4 -2 -2 -1 -1 -2 -2 -2 -2 -2 -2 -3 -3 -3 -2 -2 -1 0 1 2 2 1 -1 -1 -1 -2 -2 -1 1 3 2 -0 -2 -1 -1 -0 1 1 1 0
-1 -1 -1 -1 -0 0 0 -1 -1 -2 -2 -2 -2 -2 -2 -2 -2 -2 -3 -4 -4 -3 -2 -1 -1 -0 0 -0 0 0 1 1 1 0 -1 -3 -6 -8 -9 -9 -9 -8 -7 -6 -5 -4 -3 -1 -1 -1 -1 -1 -2 -2 -2 -2 -3 -3 -3 -3 -3 -2 -1 -0 1 1 1 1 -0 -1 -2 -2 -2 -1 1 2 1 -0 -2 -2 -1 -0 1 1 1 0
-1 -1 -0 0 0 -0 -1 -2 -2 -3 -2 -2 -2 -2 -2 -3 -3 -3 -3 -3 -3 -2 -1 -1 -0 -0 -1 -1 -1 -1 -0 0 0 0 0 -0 -2 -3 -5 -6 -6 -6 -5 -3 -3 -2 -2 -0 1 2 1 -0 -1 -1 -2 -2 -3 -3 -3 -3 -3 -2 -1 -0 0 0 1 0 -0 -1 -1 -2 -2 -1 1 2 1 -1 -3 -2 -1 -1 0 1 1 0
-1 -0 0 -0 -1 -2 -2 -3 -3 -3 -2 -2 -2 -2 -3 -3 -4 -4 -3 -2 -2 -1 -1 -0 -0 -1 -1 -2 -2 -2 -1 -0 0 0 0 0 0 -1 -2 -2 -2 -2 -1 -1 -1 -1 -1 0 3 4 3 1 -0 -1 -1 -2 -2 -3 -3 -3 -2 -2 -1 -1 -1 -0 -0 -0 -0 -1 -1 -1 -1 -1 0 1 -0 -2 -3 -2 -2 -1 0 1 1 1
0 0 0 -1 -2 -3 -3 -3 -3 -2 -2 -2 -2 -3 -3 -3 -3 -3 -3 -2 -2 -1 -2 -2 -2 -2 -2 -2 -2 -2 -2 -1 0 1 1 1 1 1 1 1 1 2 2 1 1 1 -0 -0 2 3 3 2 1 -0 -1 -1 -2 -2 -3 -3 -2 -2 -2 -2 -2 -1 -1 -1 -1 -1 -0 -1 -1 -0 -0 -0 -1 -2 -3 -2 -1 -1 -0 0 1 1
0 -0 -1 -2 -3 -3 -3 -2 -2 -2 -2 -2 -3 -3 -3 -3 -2 -2 -2 -2 -2 -2 -3 -4 -4 -4 -3 -3 -2 -2 -2 -1 -0 0 0 1 1 2 2 2 3 3 3 2 2 2 1 -1 -1 -1 0 1 0 -1 -1 -1 -1 -2 -4 -3 -3 -2 -3 -3 -2 -1 -1 -1 -1 -1 -0 -0 -0 -0 -1 -2 -2 -2 -2 -1 -1 -1 -0 0 1 0
Height
3048 3047 3047 3046 3046 3045 3044 3044 3043 3042 3041 3040 3039 3038 3036 3035 3034 3033 3031 3030 3029 3027 3026 3024 3023 3022 3020 3019 3018 3016 3014 3013 3011 3009 3007 3005 3004 3002 3000 2998 2997 2995 2993 2991 2990 2988 2986 2984 2982 2980 2978 2976 2974 2971 2969 2966 2964 2962 2959 2957 2955 2953 2951 2949 2947 2944 2943 2940 2938 2936 2934 2932 2930 2929 2927 2925 2923 2921 2919 2918 2916 2915 2913 2912 2910 2909
3046 3046 3045 3045 3044 3044 3043 3042 3041 3040 3039 3038 3037 3036 3034 3033 3032 3030 3029 3028 3026 3025 3024 3022 3021 3020 3018 3017 3015 3014 3012 3010 3009 3007 3005 3003 3001 2999 2997 2996 2994 2992 2990 2989 2987 2985 2983 2981 2979 2977 2975 2973 2971 2968 2966 2963 2961 2959 2956 2954 2952 2950 2948 2946 2944 2942 2939 2938 2936 2934 2932 2930 2928 2926 2924 2922 2920 2919 2917 2915 2914 2912 2911 2909 2908 2906
3045 3044 3044 3043 3043 3042 3041 3040 3039 3038 3037 3036 3035 3034 3032 3031 3029 3028 3027 3025 3024 3023 3021 3020 3019 3017 3016 3015 3013 3011 3009 3008 3006 3004 3002 3000 2998 2996 2994 2993 2991 2989 2988 2986 2984 2982 2980 2978 2976 2974 2972 2970 2968 2965 2963 2960 2958 2955 2953 2951 2949 2947 2945 2943 2941 2939 2937 2935 2933 2931 2929 2927 2925 2923 2921 2919 2918 2916 2914 2913 2911 2909 2908 2907 2905 2903
3044 3043 3042 3042 3041 3040 3039 3039 3037 3036 3035 3034 3032 3031 3030 3029 3027 3026 3025 3023 3022 3020 3019 3018 3016 3015 3014 3012 3011 3009 3007 3005 3003 3001 2999 2997 2995 2994 2992 2990 2988 2986 2984 2982 2980 2979 2977 2975 2973 2971 2969 2967 2964 2962 2959 2957 2954 2952 2950 2948 2946 2944 2942 2940 2938 2936 2934 2932 2930 2928 2926 2924 2922 2920 2919 2917 2915 2914 2912 2910 2909 2907 2905 2904 2902 2901
3043 3042 3041 3040 3039 3039 3038 3037 3035 3034 3033 3032 3030 3029 3028 3027 3025 3024 3022 3021 3019 3018 3017 3015 3014 3013 3011 3010 3008 3006 3004 3003 3001 2999 2996 2994 2992 2990 2989 2987 2985 2983 2981 2979 2977 2975 2974 2972 2970 2968 2966 2963 2961 2958 2956 2954 2951 2949 2947 2945 2943 2941 2939 2937 2935 2933 2931 2929 2927 2925 2923 2921 2919 2918 2916 2914 2912 2911 2909 2908 2906 2904 2902 2901 2899 2898
3041 3040 3039 3039 3038 3037 3036 3034 3033 3032 3031 3029 3028 3027 3026 3024 3023 3021 3020 3019 3017 3016 3014 3013 3011 3010 3009 3007 3005 3004 3002 3000 2998 2996 2994 2991 2989 2987 2985 2984 2982 2980 2978 2976 2974 2972 2970 2968 2966 2964 2962 2960 2957 2955 2953 2950 2948 2946 2944 2942 2940 2938 2936 2934 2932 2930 2928 2926 2924 2922 2920 2919 2917 2915 2913 2911 2909 2908 2906 2905 2903 2901 2900 2898 2897 2895
3039 3039 3038 3036 3035 3035 3034 3033 3031 3030 3029 3027 3026 3025 3024 3022 3021 3019 3018 3016 3015 3014 3012 3010 3009 3007 3006 3004 3003 3001 2999 2997 2995 2993 2991 2989 2986 2984 2982 2980 2979 2977 2974 2972 2970 2969 2967 2965 2963 2961 2959 2956 2954 2952 2949 2947 2945 2943 2941 2939 2937 2935 2933 2931 2929 2927 2925 2923 2921 2919 2918 2916 2914 2912 2910 2909 2907 2905 2904 2902 2900 2899 2897 2895 2894 2893
3038 3037 3036 3034 3034 3033 3032 3031 3029 3028 3026 3025 3024 3023 3022 3020 3019 3018 3016 3014 3013 3011 3009 3008 3006 3004 3003 3001 2999 2998 2996 2994 2992 2990 2988 2986 2984 2981 2979 2977 2975 2973 2971 2969 2967 2965 2963 2962 2960 2958 2955 2953 2951 2949 2946 2944 2942 2940 2938 2936 2934 2932 2930 2928 2926 2924 2922 2920 2919 2917 2915 2913 2911 2909 2908 2906 2904 2903 2901 2899 2898 2896 2894 2893 2892 2890
3036 3035 3034 3033 3031 3030 3029 3028 3027 3026 3024 3023 3022 3021 3019 3018 3017 3015 3014 3012 3011 3009 3007 3005 3003 3001 2999 2998 2996 2994 2993 2991 2989 2988 2985 2983 2981 2978 2976 2974 2972 2970 2968 2965 2964 2962 2960 2958 2956 2954 2952 2950 2948 2945 2943 2941 2939 2937 2935 2933 2931 2929 2927 2925 2923 2921 2919 2918 2916 2914 2912 2910 2909 2907 2905 2903 2901 2900 2898 2896 2895 2893 2892 2890 2889 2888
3034 3033 3032 3030 3029 3028 3027 3026 3025 3024 3023 3021 3020 3019 3017 3016 3014 3013 3012 3010 3009 3007 3005 3003 3001 2999 2996 2995 2993 2992 2990 2988 2987 2985 2983 2980 2978 2975 2973 2971 2969 2967 2964 2962 2960 2958 2956 2954 2953 2950 2949 2946 2944 2942 2940 2938 2936 2934 2932 2930 2928 2926 2924 2922 2920 2919 2917 2915 2913 2911 2909 2908 2906 2904 2902 2900 2899 2897 2895 2894 2892 2890 2889 2888 2887 2885
3031 3030 3029 3028 3027 3026 3025 3024 3023 3022 3021 3019 3018 3016 3015 3014 3012 3011 3009 3008 3006 3004 3002 3000 2998 2996 2994 2992 2990 2989 2988 2986 2984 2982 2980 2978 2976 2973 2971 2969 2967 2964 2962 2959 2957 2955 2953 2951 2949 2947 2945 2943 2940 2939 2937 2934 2933 2931 2929 2927 2925 2923 2921 2919 2918 2916 2914 2912 2910 2908 2906 2904 2903 2901 2899 2898 2896 2894 2893 2891 2889 2888 2887 2885 2884 2883
3029 3029 3027 3026 3025 3024 3023 3022 3021 3019 3019 3017 3015 3014 3013 3011 3010 3008 3007 3005 3003 3001 2999 2997 2995 2994 2992 2990 2988 2986 2985 2984 2982 2980 2978 2976 2973 2971 2969 2967 2965 2962 2960 2957 2954 2952 2950 2948 2945 2944 2942 2939 2937 2935 2933 2931 2929 2928 2926 2924 2922 2920 2919 2917 2915 2913 2911 2909 2908 2906 2904 2902 2900 2898 2897 2895 2893 2892 2890 2889 2887 2885 2884 2883 2881 2880
3027 3026 3025 3024 3024 3022 3021 3020 3019 3017 3016 3015 3013 3012 3010 3009 3008 3006 3004 3002 3000 2999 2997 2994 2993 2991 2989 2988 2986 2984 2983 2981 2980 2978 2976 2974 2971 2969 2967 2964 2962 2960 2958 2955 2952 2949 2948 2945 2943 2940 2939 2936 2934 2932 2930 2928 2927 2925 2923 2921 2919 2918 2916 2914 2912 2910 2909 2907 2905 2903 2901 2899 2897 2896 2894 2892 2890 2889 2887 2886 2884 2883 2882 2880 2879 2878
3025 3024 3024 3022 3021 3020 3019 3018 3016 3015 3014 3013 3011 3009 3008 3006 3005 3003 3001 2999 2997 2995 2994 2992 2990 2989 2987 2986 2984 2982 2981 2979 2978 2976 2974 2971 2969 2967 2964 2962 2959 2958 2955 2953 2949 2947 2944 2943 2940 2937 2935 2933 2931 2929 2927 2925 2924 2922 2920 2919 2917 2915 2913 2911 2909 2908 2906 2904 2902 2900 2898 2896 2894 2893 2891 2889 2888 2886 2885 2883 2882 2880 2879 2878 2877 2875
3023 3022 3021 3020 3019 3018 3017 3016 3014 3013 3012 3010 3009 3007 3005 3004 3002 3000 2998 2996 2994 2992 2991 2989 2988 2986 2984 2984 2982 2980 2978 2977 2975 2974 2972 2969 2966 2964 2962 2959 2957 2954 2953 2950 2947 2944 2942 2939 2937 2935 2933 2930 2928 2926 2924 2923 2921 2919 2918 2916 2914 2912 2910 2909 2907 2905 2903 2901 2899 2898 2895 2894 2892 2890 2889 2887 2885 2884 2882 2881 2879 2878 2877 2876 2874 2873
3021 3020 3019 3018 3017 3016 3015 3014 3012 3011 3009 3008 3006 3004 3003 3001 2999 2997 2995 2993 2991 2989 2988 2987 2986 2984 2981 2980 2979 2978 2976 2974 2973 2972 2970 2967 2964 2962 2960 2958 2954 2952 2949 2948 2945 2942 2939 2937 2934 2932 2930 2928 2925 2924 2922 2920 2918 2916 2915 2913 2911 2909 2908 2906 2904 2902 2900 2899 2897 2895 2893 2891 2889 2888 2886 2884 2883 2881 2880 2879 2877 2876 2875 2874 2872 2871
3019 3018 3017 3016 3015 3014 3013 3011 3009 3008 3007 3005 3003 3002 3000 2998 2996 2994 2992 2990 2988 2987 2985 2984 2983 2981 2979 2977 2975 2975 2974 2972 2970 2969 2968 2965 2962 2959 2958 2955 2953 2949 2947 2945 2942 2939 2937 2934 2931 2929 2927 2924 2923 2921 2919 2917 2915 2914 2912 2910 2909 2907 2905 2903 2901 2899 2898 2896 2894 2892 2890 2889 2887 2885 2884 2882 2881 2879 2878 2876 2875 2874 2873 2871 2870 2869
3017 3016 3015 3014 3013 3012 3010 3009 3007 3005 3004 3002 3001 2999 2997 2995 2993 2991 2989 2987 2986 2984 2983 2981 2980 2979 2978 2975 2972 2971 2971 2969 2968 2966 2964 2963 2960 2957 2955 2953 2950 2947 2945 2942 2939 2937 2934 2931 2929 2927 2924 2922 2920 2918 2916 2914 2913 2911 2909 2908 2906 2904 2902 2900 2899 2897 2895 2893 2891 2890 2888 2886 2885 2883 2882 2880 2879 2877 2876 2874 2873 2872 2870 2869 2868 2867
3015 3014 3013 3011 3010 3009 3008 3006 3004 3003 3001 3000 2998 2996 2994 2992 2990 2989 2986 2984 2983 2982 2980 2979 2977 2976 2975 2973 2971 2969 2968 2967 2965 2963 2962 2960 2957 2955 2953 2950 2948 2945 2942 2940 2937 2934 2931 2929 2926 2924 2922 2920 2918 2916 2914 2912 2910 2909 2907 2905 2903 2902 2900 2898 2896 2894 2893 2891 2889 2888 2886 2884 2883 2881 2880 2878 2877 2875 2874 2872 2871 2869 2869 2867 2866 2865
3013 3012 3010 3009 3008 3007 3005 3004 3002 3000 2999 2997 2995 2994 2992 2990 2988 2986 2984 2982 2981 2979 2978 2977 2975 2974 2972 2971 2968 2966 2964 2964 2962 2960 2959 2958 2955 2952 2950 2948 2945 2942 2940 2937 2934 2932 2929 2927 2924 2922 2920 2918 2915 2914 2912 2910 2908 2907 2905 2903 2901 2899 2898 2896 2894 2892 2890 2889 2887 2886 2884 2883 2881 2879 2878 2876 2874 2873 2872 2870 2869 2868 2866 2865 2864 2864
3011 3009 3008 3007 3005 3004 3003 3001 2999 2998 2996 2994 2992 2990 2989 2987 2985 2983 2982 2980 2979 2977 2976 2974 2973 2971 2970 2968 2966 2964 2962 2961 2959 2957 2956 2954 2952 2950 2948 2946 2943 2940 2938 2935 2933 2930 2928 2925 2922 2920 2918 2915 2913 2911 2909 2908 2906 2904 2903 2901 2899 2897 2896 2894 2892 2890 2889 2887 2885 2884 2882 2880 2879 2877 2876 2874 2873 2871 2869 2868 2867 2866 2864 2864 2863 2862
3009 3007 3006 3004 3003 3001 3000 2998 2997 2995 2993 2991 2989 2988 2986 2984 2983 2981 2980 2979 2977 2976 2974 2973 2971 2969 2968 2966 2964 2962 2960 2959 2957 2955 2953 2952 2949 2947 2945 2943 2941 2938 2936 2934 2931 2928 2926 2923 2921 2918 2916 2913 2911 2909 2908 2906 2904 2902 2901 2899 2897 2895 2894 2892 2890 2888 2887 2885 2883 2882 2880 2878 2877 2875 2873 2872 2870 2869 2868 2866 2865 2864 2863 2862 2861 2860
3006 3005 3004 3002 3000 2999 2997 2996 2994 2992 2990 2989 2987 2985 2984 2982 2981 2979 2978 2977 2975 2974 2972 2970 2969 2968 2966 2965 2963 2960 2958 2956 2954 2952 2951 2949 2947 2944 2942 2940 2938 2935 2934 2932 2930 2927 2924 2922 2919 2917 2914 2911 2909 2907 2905 2904 2902 2900 2899 2897 2895 2893 2892 2890 2888 2886 2884 2883 2881 2879 2878 2876 2874 2873 2871 2869 2868 2867 2865 2864 2863 2862 2861 2860 2859 2858
3004 3002 3001 2999 2998 2996 2995 2993 2991 2989 2988 2986 2985 2984 2982 2980 2979 2977 2976 2974 2973 2971 2970 2969 2967 2966 2964 2963 2961 2959 2957 2955 2952 2950 2948 2946 2944 2942 2940 2938 2935 2933 2931 2929 2928 2926 2923 2920 2918 2915 2912 2909 2907 2905 2904 2902 2900 2898 2897 2895 2893 2891 2889 2888 2886 2884 2882 2880 2879 2877 2875 2874 2872 2870 2869 2867 2866 2865 2864 2862 2861 2860 2859 2858 2857 2856
3001 3000 2998 2997 2995 2994 2992 2990 2989 2987 2985 2984 2983 2982 2980 2978 2976 2975 2974 2972 2971 2969 2969 2967 2966 2964 2962 2960 2958 2956 2954 2953 2950 2948 2945 2944 2942 2939 2937 2935 2934 2931 2929 2927 2925 2924 2921 2919 2916 2914 2911 2908 2905 2903 2901 2900 2898 2896 2894 2893 2891 2889 2887 2885 2884 2882 2880 2878 2876 2874 2873 2871 2869 2868 2867 2865 2864 2863 2861 2860 2859 2858 2857 2856 2855 2855
2998 2997 2995 2994 2993 2991 2989 2988 2986 2985 2983 2982 2981 2979 2978 2976 2974 2973 2972 2971 2969 2969 2967 2966 2964 2962 2960 2959 2956 2954 2952 2950 2948 2946 2944 2941 2939 2937 2934 2933 2931 2929 2927 2924 2923 2922 2919 2917 2914 2912 2909 2906 2904 2901 2899 2898 2896 2894 2892 2890 2889 2887 2885 2883 2881 2879 2877 2875 2874 2872 2870 2869 2867 2866 2864 2863 2862 2861 2859 2859 2858 2857 2856 2855 2854 2853
2995 2994 2993 2992 2990 2989 2988 2986 2984 2983 2981 2980 2978 2977 2975 2974 2973 2972 2971 2970 2969 2967 2966 2964 2962 2960 2958 2956 2954 2952 2949 2947 2945 2943 2941 2939 2937 2935 2932 2930 2928 2926 2924 2922 2920 2919 2917 2915 2912 2910 2908 2905 2902 2900 2898 2896 2894 2892 2890 2888 2886 2884 2883 2880 2879 2877 2875 2873 2871 2869 2868 2866 2865 2864 2863 2861 2860 2859 2858 2857 2856 2855 2854 2853 2853 2852
2993 2992 2991 2989 2988 2987 2986 2984 2983 2981 2979 2978 2976 2974 2974 2972 2971 2970 2969 2969 2967 2965 2964 2962 2960 2958 2956 2954 2953 2950 2948 2945 2943 2941 2939 2937 2935 2933 2930 2928 2925 2924 2922 2919 2918 2916 2915 2913 2910 2908 2905 2902 2900 2898 2896 2894 2892 2890 2888 2886 2884 2882 2880 2878 2876 2874 2872 2870 2869 2867 2865 2864 2863 2862 2860 2859 2858 2857 2856 2855 2854 2853 2853 2852 2851 2851
2991 2990 2989 2988 2986 2984 2983 2982 2980 2979 2977 2976 2974 2973 2972 2971 2970 2969 2968 2967 2965 2963 2961 2959 2958 2956 2954 2952 2950 2949 2947 2944 2942 2939 2937 2934 2932 2930 2928 2925 2923 2921 2919 2917 2915 2913 2912 2911 2909 2906 2903 2900 2898 2896 2894 2892 2890 2888 2886 2884 2881 2879 2877 2875 2873 2871 2869 2868 2866 2865 2864 2862 2861 2860 2859 2858 2856 2855 2854 2854 2853 2852 2851 2851 2850 2849
2989 2988 2987 2985 2984 2982 2980 2979 2978 2976 2975 2974 2973 2972 2971 2970 2969 2968 2966 2964 2963 2961 2959 2958 2956 2954 2952 2950 2948 2946 2944 2942 2940 2938 2935 2933 2930 2928 2926 2923 2920 2919 2917 2915 2912 2910 2908 2907 2907 2905 2902 2899 2896 2893 2892 2890 2888 2885 2883 2881 2879 2877 2875 2873 2871 2869 2867 2866 2864 2863 2862 2860 2859 2858 2857 2856 2855 2854 2853 2852 2851 2851 2850 2849 2849 2849
2987 2986 2984 2983 2981 2979 2978 2977 2975 2974 2973 2972 2971 2970 2969 2969 2967 2966 2964 2963 2961 2959 2958 2956 2954 2952 2950 2948 2946 2944 2941 2939 2937 2935 2933 2931 2928 2925 2924 2921 2918 2916 2914 2913 2911 2908 2905 2903 2902 2902 2900 2898 2894 2891 2889 2887 2885 2883 2881 2879 2876 2874 2872 2870 2869 2867 2865 2864 2863 2861 2860 2859 2858 2856 2855 2854 2853 2853 2852 2851 2850 2850 2849 2849 2848 2848
2985 2984 2982 2980 2979 2978 2976 2975 2974 2973 2972 2971 2970 2969 2968 2967 2965 2964 2963 2961 2959 2958 2956 2954 2952 2950 2949 2946 2944 2942 2939 2936 2934 2932 2931 2929 2926 2923 2921 2919 2917 2914 2912 2910 2909 2907 2904 2902 2899 2898 2897 2895 2893 2889 2887 2884 2882 2880 2878 2876 2874 2872 2870 2869 2867 2865 2864 2862 2861 2859 2858 2857 2856 2855 2854 2853 2852 2851 2851 2850 2849 2849 2848 2848 2848 2847
2983 2981 2980 2979 2977 2976 2974 2974 2973 2972 2971 2970 2969 2968 2967 2965 2964 2963 2961 2959 2958 2956 2954 2953 2951 2949 2946 2944 2942 2940 2938 2935 2933 2930 2928 2926 2924 2921 2919 2917 2915 2912 2910 2908 2906 2905 2903 2900 2898 2896 2894 2892 2890 2888 2885 2882 2879 2877 2875 2874 2872 2870 2869 2867 2865 2864 2862 2861 2859 2858 2857 2855 2854 2853 2852 2852 2851 2850 2849 2849 2849 2848 2848 2847 2847 2847
2980 2979 2978 2976 2975 2974 2973 2972 2972 2971 2970 2969 2968 2967 2965 2964 2963 2961 2960 2958 2956 2955 2953 2951 2949 2947 2944 2943 2940 2938 2935 2933 2931 2929 2927 2924 2922 2919 2917 2915 2913 2911 2908 2906 2904 2902 2900 2898 2896 2894 2891 2889 2886 2885 2883 2880 2878 2875 2873 2872 2870 2869 2867 2865 2864 2863 2861 2859 2858 2857 2855 2854 2853 2852 2851 2850 2850 2849 2849 2848 2848 2847 2847 2847 2847 2847
2978 2977 2975 2974 2974 2973 2972 2971 2971 2970 2969 2968 2967 2965 2964 2963 2962 2960 2959 2957 2955 2953 2951 2949 2947 2945 2943 2941 2939 2936 2933 2931 2929 2927 2925 2923 2920 2918 2915 2913 2911 2909 2907 2904 2902 2900 2898 2896 2894 2892 2889 2887 2884 2882 2880 2879 2876 2874 2871 2870 2869 2867 2866 2864 2863 2861 2860 2858 2857 2855 2854 2853 2852 2851 2850 2850 2849 2849 2848 2848 2847 2847 2846 2846 2846 2846
2976 2974 2974 2973 2972 2972 2971 2970 2970 2969 2968 2966 2965 2964 2963 2962 2960 2959 2957 2955 2953 2951 2949 2947 2945 2943 2941 2939 2937 2935 2932 2929 2927 2925 2923 2921 2919 2916 2914 2911 2909 2907 2905 2902 2899 2898 2896 2894 2891 2889 2888 2885 2883 2880 2878 2876 2874 2872 2870 2869 2867 2866 2864 2863 2862 2860 2859 2857 2856 2854 2853 2852 2851 2850 2849 2849 2849 2848 2848 2847 2847 2846 2846 2846 2846 2846
2974 2973 2972 2972 2971 2971 2970 2969 2968 2967 2966 2965 2964 2963 2962 2960 2959 2957 2955 2954 2952 2949 2948 2946 2944 2942 2940 2938 2935 2933 2931 2928 2926 2923 2921 2919 2917 2915 2912 2909 2907 2905 2903 2901 2898 2895 2893 2891 2889 2887 2885 2883 2881 2879 2877 2875 2873 2870 2869 2867 2866 2865 2863 2862 2860 2859 2858 2856 2854 2853 2852 2851 2850 2849 2849 2849 2848 2848 2847 2847 2846 2846 2846 2846 2846 2846
2972 2972 2971 2971 2970 2970 2969 2968 2967 2966 2965 2964 2963 2962 2960 2959 2957 2955 2954 2952 2950 2948 2946 2944 2942 2940 2938 2936 2934 2931 2929 2927 2924 2922 2919 2917 2915 2913 2910 2908 2905 2903 2901 2899 2896 2894 2891 2889 2887 2885 2883 2881 2879 2877 2876 2874 2872 2869 2867 2866 2865 2864 2863 2861 2859 2858 2856 2855 2854 2852 2851 2850 2849 2849 2849 2848 2848 2847 2847 2847 2846 2846 2846 2846 2846 2846
2971 2971 2971 2970 2969 2969 2968 2967 2966 2965 2964 2963 2962 2960 2959 2957 2956 2954 2952 2950 2948 2946 2944 2942 2940 2938 2936 2934 2931 2929 2927 2925 2923 2920 2918 2915 2913 2910 2908 2906 2903 2900 2898 2896 2894 2892 2889 2887 2885 2883 2881 2879 2877 2875 2874 2872 2870 2869 2867 2865 2864 2863 2862 2860 2859 2857 2856 2854 2853 2852 2851 2850 2849 2849 2848 2848 2847 2847 2847 2847 2847 2846 2846 2846 2846 2846
2971 2970 2969 2969 2968 2968 2967 2966 2965 2964 2963 2962 2961 2959 2958 2956 2954 2952 2951 2949 2947 2945 2943 2940 2938 2936 2934 2932 2929 2927 2924 2922 2920 2918 2915 2913 2910 2908 2906 2904 2901 2899 2896 2894 2892 2889 2888 2885 2883 2881 2879 2878 2876 2874 2872 2870 2869 2867 2866 2865 2864 2862 2861 2860 2858 2857 2855 2854 2852 2851 2850 2849 2849 2849 2848 2848 2847 2847 2847 2847 2847 2847 2846 2846 2846 2846
2970 2969 2969 2968 2968 2967 2966 2966 2965 2964 2962 2961 2959 2958 2956 2955 2953 2951 2949 2948 2946 2944 2941 2939 2937 2934 2932 2930 2928 2925 2923 2920 2918 2915 2913 2911 2909 2906 2904 2902 2899 2897 2895 2892 2889 2888 2886 2884 2882 2879 2878 2876 2874 2873 2871 2869 2868 2866 2865 2864 2863 2862 2860 2859 2858 2857 2855 2854 2852 2851 2850 2849 2849 2849 2848 2848 2847 2847 2847 2847 2847 2847 2847 2846 2846 2846
2969 2968 2968 2967 2967 2966 2966 2965 2964 2962 2961 2960 2959 2957 2955 2954 2952 2950 2949 2946 2944 2942 2940 2938 2936 2933 2931 2928 2926 2924 2921 2919 2916 2914 2912 2909 2907 2905 2903 2900 2898 2896 2894 2891 2888 2886 2884 2883 2881 2879 2876 2875 2873 2872 2870 2869 2867 2866 2865 2864 2863 2862 2860 2859 2858 2856 2855 2854 2852 2851 2850 2849 2849 2849 2848 2848 2847 2847 2847 2847 2847 2847 2847 2847 2847 2847
2968 2968 2967 2967 2966 2966 2965 2964 2963 2961 2960 2959 2957 2956 2954 2953 2951 2949 2947 2945 2943 2941 2939 2937 2935 2933 2930 2928 2925 2922 2920 2918 2915 2913 2911 2909 2906 2904 2901 2899 2897 2894 2892 2889 2887 2885 2883 2881 2879 2878 2876 2874 2872 2871 2870 2868 2867 2865 2864 2864 2863 2862 2860 2859 2858 2857 2855 2854 2853 2851 2850 2850 2849 2849 2849 2848 2848 2848 2848 2848 2848 2847 2847 2847 2847 2847
2967 2967 2967 2966 2966 2965 2964 2963 2961 2960 2959 2958 2956 2955 2953 2952 2950 2948 2946 2944 2942 2940 2938 2936 2934 2931 2929 2927 2924 2922 2919 2917 2914 2912 2910 2908 2905 2903 2900 2898 2895 2893 2890 2888 2886 2884 2882 2880 2879 2877 2875 2874 2872 2871 2869 2868 2867 2866 2864 2863 2862 2861 2860 2859 2858 2857 2855 2854 2853 2852 2851 2850 2849 2849 2849 2849 2848 2848 2848 2848 2848 2848 2848 2848 2848 2848
2967 2967 2966 2965 2964 2964 2963 2962 2960 2959 2958 2957 2955 2954 2952 2950 2949 2947 2945 2943 2941 2939 2937 2935 2933 2930 2928 2926 2924 2921 2919 2916 2914 2911 2909 2906 2904 2901 2899 2896 2894 2891 2889 2887 2885 2884 2882 2880 2879 2877 2875 2874 2872 2871 2869 2868 2867 2866 2864 2863 2862 2861 2860 2859 2858 2857 2856 2854 2853 2852 2851 2851 2850 2849 2849 2849 2849 2849 2849 2849 2849 2849 2848 2848 2848 2848
2966 2966 2965 2964 2964 2963 2962 2961 2959 2959 2957 2956 2954 2953 2951 2949 2948 2946 2944 2942 2940 2938 2936 2934 2932 2929 2927 2925 2923 2920 2918 2915 2912 2909 2907 2904 2902 2899 2897 2895 2893 2890 2888 2886 2884 2883 2882 2881 2879 2877 2875 2874 2872 2871 2869 2868 2867 2866 2865 2863 2862 2861 2860 2859 2859 2858 2856 2855 2854 2853 2852 2851 2850 2850 2849 2849 2849 2849 2849 2849 2849 2849 2849 2849 2849 2849
2965 2965 2964 2963 2963 2962 2961 2960 2959 2957 2956 2954 2953 2951 2950 2948 2946 2944 2943 2941 2939 2937 2934 2932 2930 2929 2927 2924 2922 2920 2917 2914 2911 2908 2906 2903 2901 2898 2896 2894 2892 2890 2888 2886 2884 2883 2882 2881 2879 2878 2876 2874 2873 2871 2870 2869 2867 2866 2865 2864 2862 2861 2861 2860 2859 2858 2857 2855 2854 2853 2852 2851 2850 2850 2850 2849 2849 2849 2850 2850 2850 2849 2849 2849 2849 2849
2964 2964 2963 2962 2962 2961 2960 2959 2958 2956 2955 2953 2952 2950 2949 2947 2945 2944 2942 2939 2938 2936 2934 2932 2929 2928 2926 2924 2921 2919 2916 2914 2911 2908 2905 2903 2900 2898 2896 2894 2892 2890 2889 2887 2885 2884 2883 2881 2880 2878 2877 2875 2874 2872 2870 2869 2867 2866 2865 2864 2863 2862 2861 2860 2859 2858 2857 2856 2854 2853 2852 2851 2851 2850 2850 2850 2850 2850 2850 2850 2850 2850 2850 2850 2850 2850
2964 2963 2962 2961 2961 2960 2959 2958 2956 2955 2954 2952 2951 2949 2948 2946 2944 2943 2941 2939 2937 2935 2933 2931 2929 2927 2925 2923 2920 2918 2915 2913 2910 2908 2905 2903 2901 2899 2897 2895 2893 2891 2890 2888 2886 2885 2883 2882 2880 2879 2877 2875 2874 2872 2871 2869 2868 2867 2865 2864 2864 2863 2862 2860 2859 2858 2857 2856 2854 2854 2853 2852 2851 2850 2850 2850 2850 2851 2851 2851 2851 2851 2851 2850 2850 2850
2963 2962 2961 2960 2960 2959 2958 2956 2955 2954 2953 2951 2950 2949 2947 2945 2944 2942 2940 2938 2936 2934 2933 2931 2929 2927 2924 2922 2919 2917 2914 2912 2909 2907 2905 2903 2901 2899 2897 2896 2894 2892 2890 2889 2887 2885 2884 2882 2881 2879 2877 2876 2874 2873 2871 2870 2869 2867 2866 2865 2864 2863 2862 2861 2859 2859 2857 2856 2855 2854 2853 2852 2852 2851 2851 2851 2851 2851 2851 2851 2851 2851 2851 2851 2851 2851
2962 2961 2960 2960 2959 2958 2957 2955 2954 2953 2952 2950 2949 2948 2946 2944 2943 2941 2939 2937 2936 2934 2932 2930 2929 2926 2924 2921 2919 2916 2914 2912 2909 2907 2905 2903 2901 2899 2898 2896 2894 2893 2891 2889 2887 2886 2884 2882 2880 2879 2877 2876 2874 2873 2871 2870 2869 2868 2867 2865 2864 2863 2862 2861 2860 2859 2858 2856 2855 2854 2853 2853 2852 2851 2851 2851 2851 2851 2852 2852 2852 2852 2852 2852 2852 2852